Location: Choisy
(48.7685°N, 2.4187°E)
Time: 11:06:14
(UTC+00:00)

BlueWalker 3 - Pass Details

Date: 29 February 2024
Orbit: 485 x 495 km, 53.2° (Epoch: 25 April)

Event Time Altitude Azimuth Distance (km) Brightness Sun altitude
Rises 19:55:08 0° 295° (WNW) 2,561 6.9 -24.0°
Reaches altitude 10° 19:57:19 10° 292° (WNW) 1,675 5.7 -24.3°
Enters shadow 20:00:17 48° 262° (W) 647 2.7 -24.8°
